COSMOS 1823 DEB, 19562

Orbit data source: Space-Track

COSMOS 1823 DEB, 19562 is space debris in LEO originally from a launch on Fri, 20 Feb 1987 UTC launched from the Plesetsk Missile And Space Complex (PKMTR). Debris objects in space refer to the collection of defunct objects orbiting the Earth. Examples of debris include non-operational satellites, rocket bodies, and fragments generated from explosions, collisions, or faulty payload assembly.

Loading next visibility...
Identifier
19562, 1987-020CD
Orbit
LEO
Country
Flag of CISCIS
Related business
Manufacturer
Unknown
Mission
Spacecraft
Bus & Motor
Unknown
Mass
Unknown
Launch date (UTC)
1987-02-20 (39 years ago)
Launch vehicle
Unknown
Launch site
Plesetsk Missile And Space Complex (PKMTR)
Object type
Payload
Rocket body
Debris
Shape & HBR
Unknown shape, 0.1 m
Radar Cross Section
Small (<0.1 m²)

Expand to show TLE details & history
Last TLE update: 5 days ago

TLE from 5 days ago
0 COSMOS 1823 DEB
1 19562U 87020CD  26168.80054843  .00025890  00000-0  11564-1 0  9997
2 19562  74.3526 308.7779 0089668  82.3699  44.4787 14.20434061233789
Epoch: 2026-06-17T19:12Z
TLE epoch observation values (Epoch: 2026-06-17T19:12:47.384Z)
Latitude
49.85325°
Longitude
-84.75993°
Altitude
785.673 km
Speed
7.49 km/s
True Right ascension
07h 17m 57s
True Declination
49° 41' 04"
Sunlit
Object was in daylight at epoch
Visualization orbit readout
Latitude
Unknown
Longitude
Unknown
Altitude
Unknown
Speed
Unknown
Apparent Right ascension
Unknown
Apparent Declination
Unknown
Sunlit
N/A
Visualization observer readout
Local Sidereal Time
06:45:26
Azimuth
Unknown
Elevation
Unknown
Doppler factor
Unknown
Orbital elements
Apogee altitude
886.057 km
Perigee altitude
756.942 km
Semi-major axis
7,199.637 km
Eccentricity
0.00897
Inclination
74.3526°
RAAN
308.7779°
Arg. of periapsis
82.3699°
True anomaly
45.20441°
Mean anomaly
44.4787°
Eccentric anomaly
44.84097°
Mean motion
3.55285 °/min
Orbital period
101.33 mins
BSTAR
0.011564
Loading maneuver chart data...
Computing Atmospheric mass density...

Documentation

Showing up to 5 results
|